FW0887 Weather Reports


time (UTC)temp
C
wind
direction
speed
KPH
gust
KPH
rain 1hr
cm
rain 24hr
cm
rain mn
cm
humidity
%
barometer
mb
20260901113038 20 251 1.6 4.8 0.00 0.05 0.00 66 1021.1
20260901111538 21 215 0.0 11.3 0.00 0.05 0.00 66 1021.0
20260901110056 20 225 1.6 4.8 0.00 0.05 0.00 67 1022.3
20260901110035 21 303 0.0 8.0 0.00 0.05 0.00 66 1021.1
20260901104535 20 234 0.0 4.8 0.00 0.05 0.00 65 1021.0
20260901103033 20 249 1.6 6.4 0.00 0.05 0.00 64 1021.0
20260901101531 20 250 1.6 8.0 0.00 0.05 0.00 70 1021.0
20260901100027 19 225 0.0 19.3 0.00 0.05 0.00 73 1021.0
20260901100007 18 203 8.0 16.1 0.00 0.05 0.00 72 1022.1
20260901094524 18 275 1.6 8.0 0.00 0.05 0.00 72 1021.0
20260901093023 18 297 0.0 3.2 0.00 0.05 0.00 74 1021.1
20260901091522 18 355 1.6 4.8 0.00 0.05 0.00 74 1021.3
20260901090031 18 299 1.6 8.0 0.00 0.05 0.00 73 1021.2
20260901085940 18 0.0 1.6 0.00 0.05 0.00 75 1022.5
20260901084519 18 245 1.6 6.4 0.00 0.05 0.00 78 1021.3
20260901083029 17 29 0.0 6.4 0.00 0.05 0.00 78 1021.1
20260901081516 17 216 0.0 8.0 0.00 0.05 0.00 79 1021.1
20260901080122 17 0.0 0.0 0.00 0.05 0.00 81 1022.1
20260901080011 17 200 0.0 4.8 0.00 0.05 0.00 81 1021.0
20260901074516 16 200 0.0 3.2 0.00 0.05 0.00 82 1020.9
20260901073019 16 200 0.0 8.0 0.00 0.05 0.00 86 1021.0
20260901071503 16 177 0.0 4.8 0.00 0.05 0.00 90 1020.8
20260901070010 15 203 1.6 3.2 0.00 0.05 0.00 91 1021.8
20260901070002 15 198 0.0 4.8 0.00 0.05 0.00 91 1020.9
20260901063102 13 191 0.0 0.0 0.00 0.05 0.00 91 1021.0
20260901061610 13 191 0.0 3.2 0.00 0.05 0.00 91 1020.9
20260901060103 12 191 0.0 1.6 0.00 0.05 0.00 91 1020.8
20260901060045 13 0.0 0.0 0.00 0.05 0.00 90 1021.9
20260901054559 12 191 0.0 0.0 0.00 0.08 0.00 90 1020.9
20260901053120 12 191 0.0 0.0 0.00 0.08 0.00 90 1020.8
20260901051555 12 191 0.0 0.0 0.00 0.08 0.00 90 1020.7
20260901050056 12 191 1.6 6.4 0.00 0.08 0.00 90 1020.6
20260901045913 12 0.0 0.0 0.00 0.08 0.00 90 1021.5
20260901044550 12 191 0.0 0.0 0.00 0.23 0.00 90 1020.5
20260901043049 12 191 0.0 3.2 0.00 0.23 0.00 90 1020.5
20260901041547 12 191 0.0 3.2 0.00 0.23 0.00 89 1020.2
20260901040046 12 191 0.0 3.2 0.00 0.23 0.00 89 1020.1
20260901040005 12 0.0 1.6 0.00 0.25 0.00 88 1021.2
20260901034543 12 191 0.0 1.6 0.00 0.71 0.00 88 1020.1
20260901033049 13 191 0.0 1.6 0.00 0.71 0.00 88 1019.9
20260901031640 13 191 0.0 1.6 0.00 0.71 0.00 88 1019.9
20260901030038 13 191 0.0 3.2 0.00 0.71 0.00 87 1020.0
20260901025916 13 0.0 0.0 0.00 0.71 0.00 87 1021.2
20260901024537 13 191 0.0 4.8 0.00 0.71 0.00 87 1020.0
20260901023039 13 191 0.0 4.8 0.00 0.71 0.00 87 1019.7
20260901021533 14 175 0.0 4.8 0.00 0.71 0.00 87 1019.7
20260901020034 14 175 0.0 3.2 0.00 0.71 0.00 87 1019.5
20260901015852 14 158 1.6 3.2 0.00 0.71 0.00 87 1020.7
20260901014530 14 213 0.0 1.6 0.00 0.71 0.00 87 1019.5
20260901013032 14 213 0.0 1.6 0.00 0.71 0.00 86 1019.4
20260901011529 14 213 0.0 0.0 0.00 0.71 0.00 86 1019.4
20260901010036 14 213 0.0 0.0 0.00 0.71 0.00 86 1019.3
20260901005924 14 0.0 0.0 0.00 0.71 0.00 86 1020.7
20260901004527 14 213 0.0 0.0 0.00 0.71 0.00 86 1019.3
20260901003027 14 213 0.0 0.0 0.00 0.71 0.00 86 1019.2
20260901001626 14 213 0.0 3.2 0.00 0.71 0.00 87 1019.2
20260901000025 14 213 0.0 3.2 0.00 0.71 0.00 86 1019.3
20260831235854 15 203 1.6 3.2 0.00 0.71 0.00 86 1020.5
20260831234523 14 213 1.6 6.4 0.00 0.71 0.00 86 1019.3
20260831233021 14 199 1.6 4.8 0.00 0.71 0.00 86 1019.0
20260831231522 15 208 0.0 11.3 0.00 0.71 0.00 86 1019.1
20260831230021 15 217 1.6 8.0 0.00 0.71 0.00 85 1019.1
20260831225926 15 225 1.6 4.8 0.05 0.71 0.00 85 1020.2
20260831224518 15 226 4.8 12.9 0.05 0.71 0.00 85 1019.2
20260831223019 15 210 1.6 9.7 0.05 0.71 0.00 84 1019.1
20260831221523 15 210 0.0 0.0 0.05 0.71 0.00 83 1018.9
20260831220026 16 0.0 1.6 0.05 0.71 0.71 80 1019.9
20260831220011 16 210 0.0 0.0 0.05 0.71 0.00 82 1019.0
20260831214508 15 210 3.2 8.0 0.00 0.66 0.66 80 1018.7
20260831213006 15 208 3.2 6.4 0.00 0.66 0.66 78 1018.6
20260831211506 16 208 0.0 6.4 0.00 0.66 0.66 76 1018.3
20260831210007 16 218 3.2 8.0 0.00 0.66 0.66 75 1018.4
20260831205953 16 203 3.2 6.4 0.00 0.66 0.66 74 1019.3
20260831204506 16 217 1.6 12.9 0.00 0.66 0.66 73 1018.2
20260831203002 17 221 6.4 14.5 0.00 0.66 0.66 72 1018.1
20260831201600 17 208 3.2 16.1 0.00 0.66 0.66 71 1017.8
20260831200059 17 254 4.8 16.1 0.00 0.66 0.66 69 1017.5
20260831195831 18 203 4.8 9.7 0.00 0.66 0.66 67 1018.5
20260831194651 17 250 1.6 22.5 0.00 0.66 0.66 67 1017.3
20260831193057 18 279 3.2 11.3 0.00 0.66 0.66 67 1017.2
20260831191555 18 209 1.6 12.9 0.00 0.66 0.66 67 1017.0
20260831190105 18 286 6.4 19.3 0.00 0.66 0.66 65 1016.9
20260831185903 18 270 4.8 12.9 0.00 0.66 0.66 66 1017.7
20260831184550 18 216 3.2 9.7 0.00 0.66 0.66 67 1016.2
20260831183051 18 213 6.4 14.5 0.00 0.66 0.66 68 1016.0
20260831181549 18 274 0.0 3.2 0.00 0.66 0.66 68 1015.9
20260831180048 18 274 0.0 4.8 0.00 0.66 0.66 66 1015.8
20260831175840 19 0.0 1.6 0.00 0.66 0.66 66 1016.7
20260831174551 18 247 1.6 14.5 0.00 0.66 0.66 66 1015.4
20260831173046 20 209 1.6 9.7 0.00 0.66 0.66 64 1015.3
20260831171548 20 205 4.8 22.5 0.00 0.66 0.66 62 1015.2
20260831170125 21 240 1.6 16.1 0.00 0.66 0.66 63 1015.2
20260831165804 21 225 3.2 9.7 0.00 0.66 0.66 62 1016.5
20260831164544 21 282 4.8 16.1 0.00 0.66 0.66 63 1015.2
20260831163045 21 212 4.8 19.3 0.00 0.66 0.66 63 1015.0
20260831161543 21 282 4.8 20.9 0.00 0.66 0.66 61 1015.0
20260831160043 21 213 4.8 11.3 0.00 0.66 0.66 62 1015.0
20260831155855 21 225 3.2 6.4 0.00 0.66 0.66 61 1016.2
20260831154549 21 298 6.4 22.5 0.00 0.66 0.66 60 1015.0
20260831153041 22 219 6.4 20.9 0.00 0.66 0.66 61 1014.8
20260831151541 22 265 1.6 22.5 0.00 0.66 0.66 65 1014.9
20260831150041 22 191 9.7 17.7 0.00 0.66 0.66 64 1015.0
20260831145803 23 203 12.9 16.1 0.00 0.66 0.66 62 1016.6
20260831144539 22 219 8.0 16.1 0.00 0.66 0.66 63 1015.3
20260831143039 22 222 9.7 19.3 0.00 0.66 0.66 62 1015.2
20260831141540 23 207 12.9 22.5 0.00 0.66 0.66 61 1015.3
20260831140136 22 198 4.8 14.5 0.00 0.66 0.66 65 1015.3
20260831135832 22 248 3.2 3.2 0.00 0.66 0.66 66 1016.8
20260831134536 22 277 6.4 16.1 0.00 0.66 0.66 65 1015.5
20260831133036 21 225 8.0 25.7 0.00 0.66 0.66 66 1015.6
20260831131533 21 207 3.2 25.7 0.00 0.66 0.66 65 1015.7
20260831130033 22 243 12.9 27.4 0.00 0.66 0.66 61 1015.6
20260831125804 23 203 8.0 17.7 0.00 0.66 0.66 63 1017.0
20260831124536 22 293 9.7 25.7 0.00 0.66 0.66 63 1015.6
20260831123030 22 259 4.8 24.1 0.00 0.66 0.66 66 1015.6
20260831121529 22 199 8.0 24.1 0.00 0.66 0.66 66 1015.5
20260831120031 22 200 4.8 33.8 0.00 0.66 0.66 68 1015.6
20260831115843 22 248 1.6 3.2 0.00 0.66 0.66 71 1016.9
20260831114523 21 205 11.3 27.4 0.00 0.66 0.66 69 1015.4